Location: Palomar Mountain Lodge
(33.3110°N, 116.8495°W)
Time: 21:20:53
(UTC-07:00)

Cosmos 2151 - Pass Details

Date: 12 July 2018
Orbit: 581 x 602 km, 82.5° (Epoch: 22 July)

Event Time Altitude Azimuth Distance (km) Brightness Sun altitude
Exits shadow 20:42:45 - 160° (SSE) 2,248 5.4 -8.8°
Reaches altitude 10° 20:43:41 10° 155° (SSE) 1,896 5.0 -8.9°
Maximum altitude 20:47:26 33° 91° (E) 994 3.7 -9.6°
Drops below altitude 10° 20:51:11 10° 28° (NNE) 1,900 5.7 -10.2°
Sets 20:53:32 0° 18° (NNE) 2,802 6.7 -10.6°
